Precipitable_Water
0.23 0.26 0.21 0.19 0.24 0.26 0.33 0.31 0.32 0.37 0.44 0.44 0.45 0.45 0.42 0.52 0.58 0.57 0.64 0.61 0.53 0.53 0.57 0.60 0.69 0.79 0.85 0.85 0.93 0.99 1.04 1.11 1.18 1.22 1.25 1.28 1.19 1.23 1.21 1.18 1.19 1.22 1.27 1.25
0.21 0.17 0.17 0.26 0.23 0.23 0.23 0.27 0.30 0.34 0.40 0.40 0.42 0.40 0.44 0.52 0.53 0.54 0.57 0.56 0.55 0.56 0.63 0.71 0.73 0.86 0.86 0.87 0.99 1.02 1.02 1.07 1.17 1.24 1.26 1.17 1.13 1.15 1.14 1.16 1.21 1.23 1.23 1.07
0.21 0.13 0.25 0.23 0.22 0.21 0.21 0.20 0.21 0.24 0.33 0.34 0.34 0.32 0.38 0.44 0.51 0.55 0.53 0.54 0.58 0.57 0.55 0.59 0.68 0.85 0.84 0.93 0.99 1.01 1.04 1.14 1.16 1.19 1.16 1.19 1.15 1.16 1.11 1.13 1.16 1.17 1.08 1.10
0.22 0.24 0.19 0.23 0.22 0.22 0.17 0.21 0.22 0.21 0.22 0.19 0.31 0.24 0.28 0.37 0.41 0.47 0.48 0.54 0.53 0.54 0.63 0.67 0.71 0.83 0.88 0.99 1.02 1.03 1.07 1.08 1.10 1.19 1.14 1.04 0.98 0.93 0.99 1.06 1.14 1.09 1.19 1.21
0.11 0.21 0.23 0.18 0.18 0.26 0.17 0.25 0.22 0.21 0.21 0.24 0.26 0.26 0.17 0.33 0.35 0.34 0.40 0.45 0.50 0.59 0.67 0.71 0.85 0.90 0.95 1.04 1.02 1.05 1.07 1.03 1.14 1.12 1.06 1.03 0.96 1.01 1.03 0.99 0.96 1.04 1.23 1.45
0.14 0.18 0.22 0.23 0.22 0.25 0.27 0.24 0.23 0.23 0.23 0.21 0.20 0.26 0.15 0.25 0.30 0.33 0.42 0.46 0.51 0.67 0.70 0.68 0.94 0.99 1.02 1.06 1.05 1.03 1.02 1.11 1.12 1.05 1.07 0.99 0.91 0.94 0.88 0.92 1.05 1.16 1.37 1.44
0.22 0.18 0.17 0.19 0.23 0.23 0.25 0.24 0.17 0.16 0.16 0.13 0.24 0.24 0.21 0.27 0.30 0.36 0.39 0.47 0.56 0.66 0.72 0.83 0.87 0.94 0.98 1.00 1.00 1.02 1.06 1.05 1.03 1.00 0.99 0.91 0.89 0.77 0.79 0.92 1.07 1.24 1.34 1.39
0.29 0.22 0.15 0.17 0.20 0.22 0.20 0.23 0.18 0.12 0.12 0.14 0.22 0.17 0.19 0.30 0.36 0.42 0.56 0.57 0.62 0.64 0.77 0.85 0.91 0.92 0.93 0.97 0.99 1.05 1.04 1.01 0.99 0.95 0.88 0.87 0.82 0.91 1.05 1.15 1.28 1.33 1.35 1.27
0.28 0.25 0.30 0.17 0.22 0.26 0.23 0.21 0.21 0.20 0.19 0.17 0.20 0.26 0.29 0.34 0.41 0.49 0.55 0.58 0.58 0.68 0.81 0.84 0.88 0.92 0.93 0.95 1.02 1.04 1.03 0.99 0.93 0.87 0.87 0.83 0.90 0.99 1.14 1.21 1.40 1.37 1.34 1.17
0.27 0.21 0.33 0.32 0.17 0.24 0.27 0.27 0.20 0.23 0.15 0.15 0.18 0.20 0.24 0.40 0.47 0.44 0.50 0.51 0.54 0.69 0.82 0.85 0.92 0.92 0.95 1.00 1.05 1.08 1.03 0.91 0.84 0.85 0.85 0.90 0.88 1.05 1.19 1.34 1.37 1.34 1.25 1.24
0.32 0.30 0.25 0.33 0.18 0.17 0.24 0.23 0.23 0.24 0.21 0.16 0.16 0.21 0.34 0.49 0.47 0.42 0.43 0.45 0.48 0.67 0.81 0.85 0.91 0.94 0.97 1.03 1.06 1.02 0.93 0.81 0.78 0.84 0.86 0.91 0.96 1.16 1.33 1.32 1.33 1.31 1.20 1.17
0.38 0.37 0.24 0.30 0.33 0.24 0.29 0.25 0.25 0.19 0.19 0.21 0.21 0.20 0.40 0.43 0.45 0.44 0.45 0.43 0.52 0.67 0.80 0.85 0.89 0.94 0.98 1.00 1.01 0.93 0.82 0.76 0.78 0.86 0.87 0.96 1.09 1.30 1.35 1.29 1.29 1.30 1.16 1.17
0.46 0.33 0.25 0.27 0.35 0.34 0.31 0.27 0.26 0.27 0.30 0.22 0.19 0.23 0.47 0.47 0.40 0.45 0.54 0.48 0.59 0.69 0.79 0.84 0.89 0.92 0.96 0.98 0.92 0.77 0.73 0.77 0.80 0.85 0.89 0.99 1.14 1.38 1.28 1.31 1.32 1.32 1.27 1.19
0.47 0.34 0.29 0.28 0.36 0.47 0.36 0.30 0.27 0.27 0.24 0.23 0.25 0.35 0.43 0.43 0.43 0.58 0.65 0.66 0.68 0.71 0.78 0.83 0.87 0.91 0.95 0.92 0.81 0.68 0.68 0.76 0.80 0.83 0.93 1.08 1.25 1.32 1.31 1.33 1.34 1.33 1.33 1.24
0.45 0.28 0.33 0.33 0.44 0.50 0.50 0.44 0.29 0.26 0.28 0.26 0.33 0.35 0.42 0.50 0.56 0.70 0.83 0.80 0.74 0.74 0.80 0.82 0.84 0.87 0.85 0.80 0.71 0.64 0.69 0.74 0.76 0.85 1.02 1.12 1.27 1.29 1.28 1.33 1.35 1.36 1.36 1.33
0.47 0.31 0.38 0.32 0.36 0.46 0.44 0.42 0.38 0.28 0.34 0.34 0.42 0.39 0.55 0.65 0.66 0.67 0.68 0.72 0.72 0.77 0.79 0.81 0.84 0.84 0.80 0.71 0.63 0.64 0.68 0.70 0.73 0.88 1.05 1.13 1.24 1.30 1.28 1.34 1.39 1.37 1.37 1.35
0.37 0.39 0.37 0.27 0.37 0.41 0.36 0.33 0.37 0.30 0.32 0.37 0.44 0.49 0.53 0.54 0.51 0.67 0.67 0.73 0.75 0.77 0.79 0.81 0.84 0.85 0.79 0.69 0.61 0.61 0.68 0.69 0.74 0.88 0.98 1.05 1.15 1.22 1.28 1.35 1.37 1.40 1.40 1.39
0.34 0.38 0.41 0.34 0.37 0.26 0.38 0.42 0.39 0.32 0.40 0.39 0.47 0.55 0.49 0.49 0.53 0.70 0.81 0.72 0.75 0.79 0.83 0.83 0.85 0.85 0.80 0.71 0.63 0.65 0.67 0.65 0.78 0.84 0.94 0.97 1.02 1.04 1.24 1.34 1.34 1.31 1.40 1.38
0.38 0.39 0.35 0.33 0.35 0.41 0.45 0.49 0.45 0.37 0.39 0.58 0.56 0.46 0.45 0.49 0.66 0.70 0.89 0.89 0.85 0.87 0.89 0.86 0.90 0.89 0.81 0.69 0.63 0.62 0.63 0.61 0.76 0.82 0.89 0.93 0.93 0.91 1.12 1.32 1.34 1.31 1.39 1.40
0.35 0.42 0.39 0.36 0.32 0.31 0.59 0.62 0.68 0.60 0.44 0.68 0.68 0.58 0.55 0.56 0.50 0.67 0.78 0.89 0.91 1.01 0.94 0.91 0.90 0.88 0.81 0.69 0.63 0.58 0.59 0.57 0.70 0.77 0.87 0.90 0.93 0.85 0.95 1.25 1.28 1.35 1.40 1.42
0.30 0.37 0.34 0.36 0.37 0.46 0.66 0.72 0.69 0.47 0.52 0.74 0.75 0.71 0.62 0.66 0.75 0.77 0.79 0.82 0.91 1.01 0.95 0.95 0.92 0.86 0.83 0.70 0.62 0.55 0.57 0.54 0.70 0.73 0.84 0.86 0.87 0.89 0.89 1.05 1.16 1.22 1.33 1.39
0.40 0.36 0.36 0.36 0.34 0.32 0.74 0.69 0.56 0.74 0.82 0.75 0.72 0.69 0.66 0.72 0.74 0.75 0.76 0.78 0.92 0.93 1.05 0.94 0.91 0.89 0.89 0.72 0.60 0.54 0.55 0.58 0.69 0.71 0.73 0.81 0.82 0.81 0.82 0.89 1.00 0.99 1.18 1.31
0.38 0.47 0.44 0.50 0.47 0.64 0.79 0.74 0.80 0.78 0.75 0.79 0.71 0.68 0.72 0.72 0.71 0.75 0.75 0.76 0.87 0.93 1.01 1.01 0.94 0.95 0.92 0.79 0.59 0.54 0.58 0.59 0.65 0.68 0.68 0.77 0.76 0.82 0.76 0.85 0.86 0.82 1.10 1.22
0.48 0.55 0.50 0.53 0.60 0.66 0.73 0.79 0.80 0.81 0.76 0.77 0.79 0.76 0.79 0.71 0.70 0.75 0.83 0.81 0.76 0.85 0.91 1.01 0.97 0.94 0.92 0.85 0.66 0.57 0.59 0.60 0.61 0.64 0.67 0.74 0.69 0.74 0.68 0.85 0.83 0.77 0.95 1.09
0.49 0.53 0.50 0.51 0.59 0.65 0.66 0.72 0.75 0.77 0.79 0.74 0.76 0.79 0.78 0.75 0.74 0.86 0.92 0.89 0.86 0.85 0.89 1.00 0.98 0.97 0.96 0.90 0.78 0.65 0.61 0.58 0.57 0.64 0.66 0.71 0.71 0.69 0.62 0.76 0.88 0.90 0.86 0.91
0.55 0.52 0.46 0.43 0.55 0.56 0.59 0.65 0.74 0.75 0.76 0.75 0.73 0.76 0.80 0.77 0.75 0.85 0.96 1.01 0.98 0.89 0.93 0.98 1.01 1.01 1.00 0.95 0.85 0.74 0.68 0.60 0.55 0.59 0.63 0.64 0.71 0.69 0.63 0.64 0.70 0.82 0.83 0.77
Wind_Speed
41 39 44 50 45 43 39 42 43 40 37 37 36 38 38 35 35 36 34 33 34 33 33 32 30 30 24 23 21 20 19 19 18 18 19 20 21 22 24 24 24 24 25 26
39 47 49 40 44 44 45 44 43 40 36 33 33 36 36 35 32 31 32 32 31 33 30 28 28 25 23 21 20 18 18 17 17 17 18 19 19 20 21 21 22 22 25 26
41 50 39 43 43 42 44 43 40 40 34 36 34 37 36 35 35 34 32 33 32 31 35 35 28 24 21 19 17 17 16 15 15 16 16 17 17 17 17 18 21 22 23 23
41 41 46 44 46 44 44 40 38 36 33 34 30 33 36 31 32 30 30 30 30 30 29 27 23 21 19 17 14 13 14 14 14 14 15 15 14 16 18 18 17 18 19 21
47 38 42 47 50 43 47 34 37 36 36 34 34 28 35 25 26 25 25 26 27 26 24 22 20 18 17 15 13 13 13 12 12 13 13 13 15 15 16 16 17 18 19 20
45 42 43 45 43 46 39 38 38 36 33 33 35 30 36 28 27 27 27 27 26 22 21 20 17 16 15 14 12 11 11 11 11 11 11 12 14 13 13 14 15 17 17 17
39 44 46 43 41 43 43 36 33 33 33 36 27 30 35 28 26 28 28 26 25 21 20 17 16 16 14 14 12 11 10 9 10 10 10 11 11 12 13 14 15 15 14 12
30 35 43 42 48 41 45 41 34 38 31 32 32 37 31 29 27 27 24 21 18 20 13 16 16 15 14 13 12 10 9 9 9 9 9 9 9 10 12 12 13 11 10 7
22 30 38 44 44 43 43 45 45 36 33 31 26 26 34 30 24 20 18 17 16 15 14 15 16 15 14 13 11 9 8 8 8 8 8 8 9 10 10 11 9 7 5 3
24 30 35 37 44 47 46 38 41 37 38 34 28 28 21 15 19 19 15 14 17 13 14 14 17 15 13 12 10 8 8 7 7 7 7 8 8 8 8 7 5 4 2 1
24 28 30 32 41 45 42 43 43 38 35 31 26 23 16 12 12 9 13 16 16 16 14 15 17 15 13 11 9 8 7 7 6 6 6 6 5 5 4 4 3 2 1 2
19 18 28 33 30 37 43 41 41 40 39 34 26 23 13 15 18 13 14 16 17 16 16 17 17 14 12 11 8 7 7 6 5 5 5 4 4 2 2 2 1 2 1 3
11 16 20 26 29 35 37 44 42 41 29 32 28 23 15 12 13 15 15 17 18 16 17 18 16 14 12 10 8 7 6 6 5 4 3 3 2 2 1 2 2 1 2 3
12 17 21 18 16 15 24 39 43 42 36 33 31 18 15 13 13 11 16 19 18 17 17 17 15 14 11 10 8 7 7 5 4 3 3 2 2 2 1 1 1 1 2 4
8 15 22 27 21 20 22 30 39 42 38 36 28 26 17 16 17 14 15 17 18 18 18 17 15 12 10 10 8 7 6 5 4 3 3 2 2 3 1 1 1 1 2 3
9 9 15 20 24 19 21 29 30 41 36 36 26 23 7 15 13 13 16 19 20 20 19 16 14 12 11 10 8 7 6 5 4 3 3 2 2 4 2 2 2 2 2 4
13 7 8 15 17 13 20 34 33 36 36 36 25 21 20 16 10 12 16 19 20 20 18 16 14 12 11 10 8 8 7 5 5 4 5 4 4 3 3 3 3 3 4 4
12 11 7 7 10 10 15 25 28 33 32 37 15 21 20 21 11 8 11 21 21 20 18 16 13 11 12 10 9 8 7 7 7 6 6 5 5 5 4 4 4 5 4 5
12 9 8 10 12 7 11 17 15 25 23 14 28 22 20 15 15 9 8 11 19 19 18 15 13 12 12 11 10 9 8 8 8 7 6 6 6 5 5 6 5 5 5 4
11 11 10 7 7 11 14 14 10 16 20 13 12 18 18 14 15 12 9 13 13 15 18 16 14 13 13 12 11 10 9 9 9 8 7 7 6 6 6 6 6 5 4 4
11 10 11 9 10 4 9 5 14 21 21 18 17 17 20 15 14 13 13 12 14 13 20 17 15 13 13 13 12 10 10 10 10 9 8 7 7 7 7 6 6 7 8 8
5 10 7 10 7 5 6 11 17 15 16 18 17 17 18 16 15 13 14 14 14 14 17 17 15 14 14 14 12 11 10 10 11 10 9 8 7 7 6 7 8 8 9 10
5 4 5 2 5 0 5 12 15 16 15 9 13 16 17 16 15 14 16 16 17 16 14 18 17 14 14 14 13 11 11 11 12 11 10 9 8 8 7 8 8 8 10 11
2 3 6 3 0 2 4 9 7 9 13 11 8 13 15 17 17 17 18 18 19 20 18 18 19 16 14 14 14 13 12 12 12 11 10 9 9 9 8 8 8 8 9 10
3 5 7 9 1 4 2 3 4 6 11 12 8 10 12 14 15 17 17 18 20 19 20 19 20 18 16 14 14 14 14 13 13 12 11 10 10 9 9 9 8 8 9 10
2 4 5 8 9 9 8 7 7 6 10 11 10 9 11 12 14 17 16 17 19 20 19 20 21 20 18 16 14 14 14 14 13 13 12 11 10 10 10 10 10 9 9 10
Wind_Direction
233 232 233 234 235 244 245 247 250 254 255 255 258 263 267 268 268 266 268 270 275 271 273 273 276 280 277 279 273 266 262 263 261 263 267 272 270 272 274 276 279 282 287 291
234 232 235 238 237 240 243 248 250 256 256 258 261 262 264 261 265 268 268 267 270 274 274 275 276 271 273 271 269 262 261 258 257 265 271 274 273 274 276 276 280 283 288 293
234 238 235 237 237 238 240 242 247 253 258 259 264 266 266 265 267 267 267 272 271 271 276 270 270 265 265 263 263 257 254 254 258 266 271 278 273 282 278 280 286 288 291 295
241 240 237 234 237 234 241 239 245 250 252 255 256 266 262 265 266 265 268 268 271 271 270 265 262 255 253 253 251 250 251 255 256 268 274 270 275 279 282 285 288 294 293 296
239 239 234 235 236 233 241 240 244 247 250 257 253 259 267 266 267 270 272 271 272 271 266 260 248 243 241 240 245 250 248 245 262 272 271 270 277 281 287 289 292 297 299 299
243 240 239 239 238 237 240 238 243 247 249 249 249 251 264 262 267 271 273 271 268 263 261 254 228 227 231 231 242 235 234 252 267 268 272 274 277 290 292 295 299 301 304 303
243 239 238 236 239 232 231 231 233 237 238 244 248 249 260 266 269 273 275 273 266 256 254 224 217 221 224 226 227 225 236 260 266 268 274 279 287 285 292 297 303 304 307 307
249 246 230 229 231 231 226 226 228 229 235 246 246 253 262 265 269 268 280 260 250 244 218 209 214 215 216 215 215 226 242 258 262 266 274 282 288 289 298 302 305 307 313 312
251 251 240 229 231 228 227 222 229 238 240 245 248 253 254 260 261 261 270 247 237 200 208 209 209 207 207 207 214 228 246 258 261 262 276 284 290 293 302 308 310 312 321 332
252 253 244 242 224 229 226 224 221 226 230 241 240 246 261 241 251 260 238 228 215 205 202 206 198 200 201 205 216 230 246 254 253 262 278 283 293 299 307 313 321 325 331 10
248 236 241 242 226 219 220 222 220 228 227 233 240 248 267 243 237 244 228 221 213 197 200 196 192 195 198 204 216 231 247 246 247 262 279 282 291 301 314 327 338 3 72 114
252 241 237 238 230 225 222 221 220 218 221 226 236 239 240 242 246 252 236 209 190 193 194 189 188 192 197 205 216 234 235 231 247 261 272 275 292 286 326 358 24 38 138 146
246 229 234 237 231 223 223 218 221 221 221 221 226 237 232 237 234 224 207 189 185 184 183 185 188 193 197 207 216 225 222 224 242 250 258 270 262 247 310 18 28 75 148 163
243 231 235 225 213 228 221 219 218 213 212 217 217 210 227 222 210 199 183 174 178 182 182 185 188 191 201 205 209 211 212 220 229 237 242 233 215 202 199 9 35 75 157 166
242 247 244 232 226 230 237 230 216 211 208 210 214 218 222 200 191 183 183 181 182 183 184 184 187 191 196 196 199 199 203 209 212 215 196 210 196 184 191 123 80 67 166 162
256 244 252 233 221 223 241 227 217 206 201 205 215 193 168 168 176 181 189 189 185 181 181 182 187 188 189 189 192 192 193 193 191 181 167 171 156 170 159 130 86 76 116 172
266 243 257 221 209 236 224 207 207 205 199 198 198 198 176 184 156 171 181 181 180 181 183 185 186 188 187 187 188 186 184 179 175 163 143 135 130 132 142 122 94 85 92 118
254 252 224 184 177 210 207 197 203 198 194 194 175 187 171 189 178 158 179 187 185 184 185 186 189 187 185 185 182 181 176 173 170 162 152 136 123 114 127 128 103 89 96 104
227 220 212 195 174 194 224 173 190 186 174 194 195 193 180 179 159 156 165 170 184 187 187 188 188 186 183 182 178 178 173 172 169 163 158 147 132 112 114 115 112 102 92 95
210 206 200 192 193 176 158 192 199 165 170 174 180 176 188 192 191 188 185 185 187 189 185 186 184 182 182 181 177 176 172 172 170 163 159 147 135 122 120 106 104 92 78 64
205 198 213 209 185 213 199 211 196 179 179 180 183 185 186 191 196 202 195 188 194 195 185 182 181 181 181 180 178 177 172 173 170 163 157 149 137 122 116 105 99 90 77 77
186 196 198 199 205 235 227 183 162 172 171 185 189 192 197 203 208 207 198 196 194 195 180 182 182 182 181 181 180 180 175 173 171 164 160 152 143 135 123 115 107 97 88 83
191 189 207 186 171 112 168 144 172 184 175 170 197 201 206 209 210 210 207 206 202 198 193 188 186 183 183 184 184 182 177 176 173 167 162 155 152 141 133 126 119 107 104 90
239 214 210 221 190 86 76 183 150 180 192 195 198 200 209 212 215 212 207 205 205 205 203 194 189 187 184 185 186 186 179 179 175 170 164 160 158 147 145 137 130 123 119 111
228 242 249 200 296 213 72 130 183 194 192 199 207 209 208 203 204 204 205 205 205 204 202 200 193 192 189 186 185 186 183 181 178 174 170 164 162 154 151 145 136 128 112 124
320 278 244 239 259 248 266 267 227 213 195 200 205 210 206 203 202 202 204 202 202 202 203 202 196 195 194 191 188 186 187 187 182 180 179 176 170 166 163 156 146 126 129 119